SL-16 R/B (23088 NORAD) Tracking and Keplerian Element Data

This shows tracking and keplerian element data for the satellite.

Feedback or suggestion? Click here.




ElementValue
Catalog23088
NameSL-16 R/B
Epoch Orbit25081
Epoch Day195.92202259
Epoch Year2018
RAAN177.7591
Inclination70.9982
Eccentricity0.0005027
Argument of Perigee239.7182
Mean Anonmoly120.3443
Mean Motion14.14668138
Decay Rate2.06E-06
L11 23088U 94023B 18195.92202259 .00000206 00000-0 13187-3 0 9995
L22 23088 70.9982 177.7591 0005027 239.7182 120.3443 14.14668138250816

Live tracking and technical data element details for SL-16 R/B (NORAD 23088). SL-16 R/B can be tracked NOW for your location showing map with azimuth and elevation plus other details from your city location.

Track the satellite on the map from your city or location and see movement details for azimuth, elevation, latitude, longitude, range, height, and movement on the map or in text.







IsCatalogInMostPopularTable: catalog: 23088, numindb: 24
Update: records affected: 1



GetName: 23088 SL-16 R/B

Hit Count: updated at: Sun, 15 Jul 2018 22:56:16 GMT